User: anonymous   Login
Location: Ferma
(41.9500°N, 44.5167°E)
Time: 13:01:41
(UTC+00:00)
Language:

Radarsat Rocket - Orbit

View from above orbital plane
View from above orbital plane
View from above satellite
View from above satellite

Ground track
Ground track

The orbit data is extracted from the following two-line orbital elements,

1 23711U 95059B   22272.90340451 -.00000017  00000-0  60642-4 0  9994
2 23711 100.6142 287.6908 0367389 282.2525 137.6766 13.12744092288942
Epoch (UTC): 29 September 2022 21:40:54
Eccentricity: 0.0367389
inclination: 100.6142°
perigee height: 933 km
apogee height: 1491 km
right ascension of ascending node: 287.6908°
argument of perigee: 282.2525°
revolutions per day: 13.12744092
mean anomaly at epoch: 137.6766°
orbit number at epoch: 28894

The dashed part of the orbit path shows where the satellite is in the earth's shadow,  

DLR